When you browse on this site, cookies collect data to enhance your experience and personalize the content and advertising you see.
Visit our Privacy Policy to learn more. By continuing to use the site, you agree to this use of cookies and data.
  • In Czech Republic
  • List of Countries
  • For 7 days
  • Water Temperature
  • Weather Map
  • Weather Widgets
  • user-avatar
    Login

    Hourly Weather Sabana de Torres

    Today, 30 May, Saturday

    Time Temperature Precipitation Wind Pressure Humidity
    00:00 +26°C° 3.6 mm 1 mps 751 mmHg 95%
    01:00 +25°C° 3.6 mm 1 mps 751 mmHg 97%
    02:00 +25°C° 7.1 mm 2 mps 751 mmHg 97%
    03:00 +25°C° 7.1 mm 2 mps 751 mmHg 98%
    04:00 +25°C° 7.1 mm 2 mps 751 mmHg 98%
    05:00 +25°C° 1 mm 1 mps 751 mmHg 97%
    06:00 +25°C° 1 mm 1 mps 751 mmHg 97%
    07:00 +23°C° 1 mm 0 mps 752 mmHg 96%
    08:00 +24°C° 0.1 mm 0 mps 752 mmHg 92%
    09:00 +27°C° 0.1 mm 1 mps 752 mmHg 89%
    10:00 +28°C° 0.1 mm 1 mps 752 mmHg 86%
    11:00 +29°C° 0.1 mm 1 mps 751 mmHg 81%
    12:00 +31°C° 0.1 mm 1 mps 751 mmHg 76%
    13:00 +32°C° 0.1 mm 1 mps 750 mmHg 72%
    14:00 +31°C° 0.2 mm 1 mps 749 mmHg 73%
    15:00 +31°C° 0.2 mm 1 mps 749 mmHg 74%
    16:00 +31°C° 0.2 mm 1 mps 748 mmHg 76%
    17:00 +30°C° 0.3 mm 1 mps 749 mmHg 80%
    18:00 +28°C° 0.3 mm 1 mps 749 mmHg 85%
    19:00 +27°C° 0.3 mm 1 mps 750 mmHg 90%
    20:00 +27°C° 0.3 mm 1 mps 750 mmHg 90%
    21:00 +25°C° 0.3 mm 0 mps 751 mmHg 91%
    22:00 +25°C° 0.3 mm 0 mps 751 mmHg 92%
    23:00 +24°C° 0.9 mm 0 mps 751 mmHg 92%

    Tomorrow, 31 May, Sunday

    Time Temperature Precipitation Wind Pressure Humidity
    00:00 +24°C° 0.9 mm 0 mps 751 mmHg 93%
    01:00 +24°C° 0.9 mm 0 mps 751 mmHg 94%
    02:00 +24°C° 2.3 mm 0 mps 751 mmHg 95%
    03:00 +23°C° 2.3 mm 0 mps 751 mmHg 96%
    04:00 +23°C° 2.3 mm 0 mps 750 mmHg 97%
    05:00 +23°C° 1.5 mm 0 mps 751 mmHg 97%
    06:00 +24°C° 1.5 mm 0 mps 751 mmHg 97%
    07:00 +24°C° 1.5 mm 0 mps 752 mmHg 96%
    08:00 +25°C° 0.6 mm 0 mps 752 mmHg 94%
    09:00 +26°C° 0.6 mm 0 mps 752 mmHg 91%
    10:00 +29°C° 0.6 mm 1 mps 752 mmHg 89%
    11:00 +29°C° 0.8 mm 1 mps 751 mmHg 85%
    12:00 +30°C° 0.8 mm 1 mps 751 mmHg 81%
    13:00 +31°C° 0.8 mm 2 mps 750 mmHg 77%
    14:00 +31°C° 1 mm 1 mps 750 mmHg 80%
    15:00 +31°C° 1 mm 1 mps 749 mmHg 83%
    16:00 +30°C° 1 mm 1 mps 749 mmHg 85%
    17:00 +29°C° 1.8 mm 1 mps 749 mmHg 88%
    18:00 +28°C° 1.8 mm 1 mps 750 mmHg 92%
    19:00 +27°C° 1.8 mm 1 mps 750 mmHg 95%
    20:00 +27°C° 1.2 mm 1 mps 751 mmHg 95%
    21:00 +26°C° 1.2 mm 1 mps 752 mmHg 95%
    22:00 +26°C° 1.2 mm 1 mps 752 mmHg 96%
    23:00 +26°C° 2.7 mm 1 mps 752 mmHg 96%

    Day after tomorrow, 1 June, Monday

    Time Temperature Precipitation Wind Pressure Humidity
    00:00 +26°C° 2.7 mm 1 mps 751 mmHg 97%
    01:00 +25°C° 2.7 mm 1 mps 751 mmHg 98%
    02:00 +25°C° 4.2 mm 1 mps 751 mmHg 98%
    03:00 +25°C° 4.2 mm 1 mps 751 mmHg 98%
    04:00 +23°C° 4.2 mm 0 mps 751 mmHg 99%
    05:00 +23°C° 4.1 mm 0 mps 751 mmHg 99%
    06:00 +23°C° 4.1 mm 0 mps 751 mmHg 98%
    07:00 +23°C° 4.1 mm 0 mps 752 mmHg 98%
    08:00 +24°C° 1.5 mm 0 mps 752 mmHg 97%
    09:00 +26°C° 1.5 mm 1 mps 752 mmHg 96%
    10:00 +27°C° 1.5 mm 1 mps 753 mmHg 95%
    11:00 +27°C° 0.9 mm 1 mps 752 mmHg 94%
    12:00 +28°C° 0.9 mm 1 mps 751 mmHg 93%
    13:00 +28°C° 0.9 mm 1 mps 750 mmHg 93%
    14:00 +28°C° 0.4 mm 1 mps 750 mmHg 89%
    15:00 +29°C° 0.4 mm 1 mps 750 mmHg 85%
    16:00 +29°C° 0.4 mm 1 mps 749 mmHg 81%
    17:00 +26°C° 0.1 mm 0 mps 750 mmHg 85%
    18:00 +26°C° 0.1 mm 0 mps 750 mmHg 88%
    19:00 +25°C° 0.1 mm 0 mps 751 mmHg 92%
    20:00 +24°C° 0 mm 0 mps 751 mmHg 92%
    21:00 +24°C° 0 mm 0 mps 751 mmHg 92%
    22:00 +24°C° 0 mm 0 mps 752 mmHg 92%
    23:00 +24°C° 0.4 mm 0 mps 752 mmHg 92%

    2 June, Tuesday

    Time Temperature Precipitation Wind Pressure Humidity
    00:00 +24°C° 0.4 mm 0 mps 751 mmHg 93%
    01:00 +25°C° 0.4 mm 1 mps 751 mmHg 93%
    02:00 +25°C° 0.6 mm 1 mps 751 mmHg 93%
    03:00 +23°C° 0.6 mm 0 mps 751 mmHg 93%
    04:00 +23°C° 0.6 mm 0 mps 751 mmHg 93%
    05:00 +23°C° 0.3 mm 0 mps 751 mmHg 93%
    06:00 +23°C° 0.3 mm 0 mps 751 mmHg 92%
    07:00 +24°C° 0.3 mm 0 mps 752 mmHg 91%
    08:00 +25°C° 0.1 mm 0 mps 752 mmHg 85%
    09:00 +27°C° 0.1 mm 0 mps 752 mmHg 79%
    10:00 +31°C° 0.1 mm 1 mps 752 mmHg 74%
    11:00 +31°C° 0.2 mm 1 mps 751 mmHg 71%
    12:00 +32°C° 0.2 mm 1 mps 750 mmHg 69%
    13:00 +32°C° 0.2 mm 1 mps 749 mmHg 67%
    14:00 +32°C° 0.2 mm 1 mps 749 mmHg 70%
    15:00 +32°C° 0.2 mm 1 mps 749 mmHg 72%
    16:00 +31°C° 0.2 mm 1 mps 748 mmHg 75%
    17:00 +30°C° 1 mm 1 mps 749 mmHg 81%
    18:00 +29°C° 1 mm 1 mps 749 mmHg 86%
    19:00 +27°C° 1 mm 1 mps 750 mmHg 92%
    20:00 +27°C° 0.9 mm 1 mps 750 mmHg 92%
    21:00 +27°C° 0.9 mm 1 mps 751 mmHg 93%
    22:00 +27°C° 0.9 mm 1 mps 752 mmHg 93%
    23:00 +26°C° 2.7 mm 1 mps 751 mmHg 94%

    3 June, Wednesday

    Time Temperature Precipitation Wind Pressure Humidity
    00:00 +26°C° 2.7 mm 1 mps 751 mmHg 95%
    01:00 +26°C° 2.7 mm 1 mps 751 mmHg 96%
    02:00 +25°C° 3.9 mm 1 mps 751 mmHg 97%
    03:00 +25°C° 3.9 mm 1 mps 750 mmHg 98%
    04:00 +25°C° 3.9 mm 1 mps 750 mmHg 98%
    05:00 +25°C° 1 mm 1 mps 751 mmHg 98%
    06:00 +25°C° 1 mm 1 mps 751 mmHg 97%
    07:00 +24°C° 1 mm 0 mps 751 mmHg 97%
    08:00 +25°C° 0.5 mm 0 mps 751 mmHg 93%
    09:00 +26°C° 0.5 mm 0 mps 751 mmHg 88%
    10:00 +27°C° 0.5 mm 0 mps 751 mmHg 84%
    11:00 +30°C° 0.1 mm 1 mps 751 mmHg 81%
    12:00 +30°C° 0.1 mm 1 mps 750 mmHg 77%
    13:00 +31°C° 0.1 mm 1 mps 749 mmHg 74%
    14:00 +31°C° 0.3 mm 1 mps 749 mmHg 76%
    15:00 +30°C° 0.3 mm 1 mps 748 mmHg 78%
    16:00 +28°C° 0.3 mm 0 mps 748 mmHg 80%
    17:00 +27°C° 0.8 mm 0 mps 749 mmHg 84%
    18:00 +26°C° 0.8 mm 0 mps 749 mmHg 88%
    19:00 +27°C° 0.8 mm 1 mps 750 mmHg 92%
    20:00 +27°C° 0.7 mm 1 mps 750 mmHg 93%
    21:00 +26°C° 0.7 mm 1 mps 751 mmHg 94%
    22:00 +26°C° 0.7 mm 1 mps 751 mmHg 95%
    23:00 +26°C° 1.4 mm 1 mps 751 mmHg 95%

    4 June, Thursday

    Time Temperature Precipitation Wind Pressure Humidity
    00:00 +25°C° 1.4 mm 1 mps 751 mmHg 96%
    01:00 +25°C° 1.4 mm 1 mps 751 mmHg 96%
    02:00 +25°C° 1.7 mm 1 mps 751 mmHg 96%
    03:00 +25°C° 1.7 mm 1 mps 750 mmHg 97%
    04:00 +23°C° 1.7 mm 0 mps 750 mmHg 97%
    05:00 +23°C° 0.9 mm 0 mps 751 mmHg 97%
    06:00 +23°C° 0.9 mm 0 mps 751 mmHg 97%
    07:00 +23°C° 0.9 mm 0 mps 751 mmHg 97%
    08:00 +25°C° 0 mm 0 mps 751 mmHg 92%
    09:00 +26°C° 0 mm 0 mps 751 mmHg 86%
    10:00 +30°C° 0 mm 1 mps 751 mmHg 81%
    11:00 +31°C° 0 mm 1 mps 750 mmHg 75%
    12:00 +32°C° 0 mm 1 mps 749 mmHg 70%
    13:00 +33°C° 0 mm 1 mps 748 mmHg 65%
    14:00 +33°C° 0.1 mm 1 mps 748 mmHg 67%
    15:00 +32°C° 0.1 mm 1 mps 747 mmHg 69%
    16:00 +32°C° 0.1 mm 1 mps 747 mmHg 72%
    17:00 +30°C° 0.5 mm 1 mps 747 mmHg 79%
    18:00 +29°C° 0.5 mm 1 mps 748 mmHg 86%
    19:00 +27°C° 0.5 mm 1 mps 749 mmHg 93%
    20:00 +27°C° 0.2 mm 1 mps 749 mmHg 92%
    21:00 +27°C° 0.2 mm 1 mps 750 mmHg 91%
    22:00 +26°C° 0.2 mm 1 mps 751 mmHg 91%
    23:00 +26°C° 0.8 mm 1 mps 751 mmHg 92%
    Show more